Home > Weather > Roswell > Past weeks

Flag for USA Weather for the Past 2 Weeks in Roswell, New Mexico, USA

Now
44 °F

Overcast.


Feels Like: 39 °F
Forecast: 40 / 67 °F
Wind: 9 mph from Northeast

Location: Roswell Industrial Air Center Airport

Current Time: May 2, 2016 at 2:22:36 AM

Latest Report: May 2, 2016 at 1:51 AM


Visibility: 10 mi

Pressure: 30.23 "Hg (26.46 "Hg at 1089m altitude)

Humidity: 71%

Dew Point: 35 °F

Location of RoswellLocation

Historic Weather in Roswell — Graph

°F

Roswell Temperature Yesterday

Maximum temperature yesterday: 55 °F (at 12:51 AM)
Minimum temperature yesterday: 40 °F (at 9:51 AM)
Average temperature yesterday: 46 °F

High & Low Weather Summary for the Past Weeks

 TemperatureHumidityPressure
High88 °F (Apr 24, 2:51 PM)89% (Apr 19, 6:51 AM)30.24 "Hg (Apr 19, 6:51 AM)
Low40 °F (May 1, 9:51 AM)7% (Apr 25, 6:51 PM)29.45 "Hg (Apr 25, 8:51 PM)
Average63 °F36%29.78 "Hg
* Reported Apr 17 12:51 AM — May 2 12:51 AM, Roswell, Weather by CustomWeather, © 2016

Note: Actual official high and low records may vary slightly from our data, if they occured in-between our weather recording intervals... More about our weather records

Advertising

Roswell Weather History for the Previous 24 Hours

Scroll right to see more
 ConditionsComfort  
Time TempWeatherWind HumidityBarometerVisibility
12:51 AM
Mon, May 2
45 °FOvercast.9 mph71%30.24 "Hg10 mi
11:51 PM
Sun, May 1
46 °FMostly cloudy.8 mph71%30.23 "Hg10 mi
10:51 PM46 °FOvercast.6 mph71%30.24 "Hg10 mi
9:51 PM46 °FOvercast.8 mph71%30.24 "Hg10 mi
8:51 PM46 °FOvercast.6 mph77%30.20 "Hg10 mi
7:51 PM44 °FMore clouds than sun.8 mph85%30.18 "Hg10 mi
6:51 PM46 °FMostly cloudy.10 mph79%30.15 "Hg10 mi
5:51 PM47 °FOvercast.14 mph71%30.13 "Hg10 mi
4:51 PM47 °FMostly cloudy.13 mph71%30.12 "Hg10 mi
4:03 PM46 °FMostly cloudy.12 mph83%30.18 "Hg10 mi
2:51 PM47 °FMore clouds than sun.18 mph69%30.12 "Hg10 mi
1:51 PM46 °FOvercast.16 mph71%30.12 "Hg10 mi
12:51 PM45 °FMore clouds than sun.17 mph74%30.12 "Hg10 mi
11:51 AM43 °FMostly cloudy.13 mph79%30.14 "Hg9 mi
10:51 AM41 °FOvercast.13 mph86%30.14 "Hg10 mi
9:51 AM40 °FMostly cloudy.15 mph86%30.13 "Hg10 mi
8:51 AM41 °FLight rain. Overcast.18 mph82%30.10 "Hg10 mi
7:51 AM42 °FLight rain. Overcast.17 mph76%30.05 "Hg10 mi
6:51 AM46 °FMostly cloudy.16 mph58%30.00 "Hg10 mi
5:51 AM46 °FOvercast.14 mph61%29.96 "Hg10 mi
4:51 AM46 °FOvercast.16 mph58%29.92 "Hg10 mi
3:51 AM47 °FMostly cloudy.21 mph59%29.91 "Hg10 mi
2:51 AM49 °FMostly cloudy.20 mph55%29.87 "Hg10 mi
Weather by CustomWeather, © 2016

See weather overviewHow to use our weather pages